Location: ??
(35.1714°N, 128.2806°E)
Time: 14:41:17
(UTC+00:00)

N. Korean satellite - Pass Details

Date: 28 June 2021
Orbit: 451 x 497 km, 97.2° (Epoch: 26 July)

Event Time Altitude Azimuth Distance (km) Brightness Sun altitude
Rises 19:41:17 0° 36° (NE) 2,581 11.9 -6.7°
Reaches altitude 10° 19:44:28 10° 67° (ENE) 1,698 11.0 -6.2°
Maximum altitude 19:46:02 12° 93° (E) 1,553 10.0 -5.9°
Drops below altitude 10° 19:47:37 10° 119° (ESE) 1,696 9.7 -5.6°
Sets 19:50:47 0° 150° (SSE) 2,573 10.2 -5.1°
